[[{"header":{"parameterUnit":"m.s-1","parameterCategory":1,"la1":30.2991,"la2":30.254,"lo1":-89.0895,"lo2":-89.0444,"dy":0.0017,"dx":0.0017,"nx":28,"ny":28,"refTime":"2025-12-30T03:00:00:Z","depth":0,"parameterNumber":2,"parameterNumberName":"U-component_of_WINDS"},"data":[0,0,0,0,0,0,0,0,0,0,0,0,0,0,0,0,0,0,0,0,0,0,0,0,0,0,0,0,0,0,0,0,0,0,0,0,0,0,0,0,0,0,0,0,0,0,0,0,0,0,0,0,0,0,0,0,0,0,4.8002,4.8004,0,4.8201,4.8203,4.8205,4.8159,4.8155,4.8151,4.8148,4.8351,4.836,4.8369,0,0,0,0,0,0,0,0,0,0,0,0,0,4.7581,4.7589,4.8002,4.8004,4.8007,4.82,4.8203,4.8206,4.816,4.8155,4.815,4.8146,4.8348,4.8359,4.837,0,0,0,0,0,0,0,0,0,0,0,0,0,4.777,4.7592,4.8001,4.8007,4.801,4.82,4.8203,4.8207,4.8161,4.8155,4.8149,4.8144,4.8345,4.8358,4.8371,4.8568,0,0,4.8412,4.8418,0,0,0,0,0,0,0,0,4.776,4.7786,4.8004,4.8007,4.801,4.8149,4.8129,4.8328,4.8162,4.8103,4.8148,4.8141,4.8289,4.8306,4.8356,4.8578,4.8586,4.8413,4.8422,4.8427,4.8431,0,0,0,0,0,0,0,4.7746,4.7777,4.808,4.8007,4.8011,4.7999,4.802,4.8167,4.8225,4.8108,4.8105,4.8129,4.8289,4.8343,4.8361,4.8589,4.8413,4.8425,4.8433,4.8439,4.898,4.8986,0,0,0,0,0,0,4.7731,4.7766,4.8074,4.8086,4.7868,4.8011,4.8035,4.811,4.8224,4.8236,4.8134,4.8126,4.8323,4.8345,4.8368,4.8604,4.8427,4.844,4.8448,4.8974,4.8982,4.8988,0,0,0,0,0,0,4.7722,4.7759,4.8066,4.7926,4.7964,4.8025,4.811,4.8117,4.8171,4.8243,4.8253,4.8178,4.832,4.8349,4.8518,4.861,4.8446,4.8458,4.8966,4.8976,4.8985,4.9079,0,0,0,0,0,0,4.771,4.7756,4.7832,4.7928,4.7972,4.8214,4.8116,4.8125,4.8194,4.8186,4.8288,4.8299,4.8317,4.8498,4.8531,4.8626,4.8469,4.8958,4.8971,4.8982,4.9068,4.9091,4.911,0,0,0,0,0,4.7695,4.7851,4.7836,4.7873,4.8068,4.8219,4.8244,4.8262,4.8202,4.8278,4.8324,4.8296,4.8595,4.8516,4.8553,4.8653,4.8953,4.8967,4.8981,4.9059,4.9086,4.911,0,0,0,0,0,0,4.7764,4.7863,4.7848,4.8039,4.8121,4.8211,4.8308,4.8291,4.8392,4.838,4.8398,4.8422,4.8594,4.8641,4.8551,4.8848,4.8765,4.8787,4.8811,4.8838,4.8859,4.8843,4.848,0,0,0,0,0,4.7801,4.7917,4.7997,4.8158,4.82,4.8247,4.8314,4.8321,4.8406,4.8441,4.8499,4.8583,4.8696,4.877,4.8878,4.9075,4.9095,4.9162,4.9183,4.92,4.9218,4.9324,4.9354,4.9035,4.9035,4.9035,0,0,4.788,4.7948,4.802,4.8174,4.8238,4.8356,4.8277,4.8406,4.8493,4.846,4.8623,4.8669,4.8764,4.8948,4.9032,4.8992,4.9311,4.9218,4.9231,4.924,4.9342,4.9372,4.9398,4.9045,4.9043,4.9042,0,0,4.8083,4.8147,4.8287,4.8353,4.8451,4.8481,4.8515,4.8608,4.8637,4.8801,4.8778,4.8883,4.9077,4.9145,4.9205,4.9433,4.9409,4.9468,4.9577,4.968,4.9705,4.9727,4.9806,4.9835,4.9486,4.9486,4.9487,0,4.8168,4.8345,4.8362,4.8492,4.856,4.8535,4.8677,4.874,4.8868,4.8915,4.8869,4.9111,4.9174,4.9372,4.9427,4.9477,4.9515,4.9455,4.97,4.9722,4.9743,4.9819,4.9849,4.9493,4.9492,4.9491,4.9491,0,4.8444,4.8567,4.8669,4.8793,4.8872,4.9008,4.9043,4.9122,4.9121,4.9156,4.9322,4.9396,4.9518,4.9566,4.9567,4.9764,4.9736,4.9695,4.9611,4.978,4.9851,4.988,4.9502,4.9499,4.9498,4.9496,0,0,4.8696,4.8826,4.8863,4.8918,4.9025,4.912,4.9254,4.9372,4.9438,4.9528,4.9639,4.9804,4.9766,4.9834,4.9843,4.9933,5.0106,4.9881,4.9883,4.9919,5.0326,5.0355,5.0388,5.0092,5.0098,5.0102,5.0317,0,4.8907,4.9143,4.9161,4.9373,4.9486,4.9464,4.958,4.9658,4.9694,4.9794,4.9834,4.995,4.9892,4.9933,5.0021,5.0067,5.0188,5.0052,5.0195,5.02,5.017,5.0426,5.0457,5.0656,5.0345,5.035,5.0354,0,4.9185,4.9282,4.9505,4.9593,4.9642,4.9746,4.9855,4.9952,5.0039,5.0059,5.0134,5.013,5.0267,5.0179,5.0367,5.0273,5.0333,5.0364,5.0372,5.0385,5.0286,5.0444,5.0721,5.075,5.0398,5.0395,5.0391,0,4.9344,4.953,4.9687,4.9735,4.9843,4.9917,4.9965,5.0046,5.0116,5.0211,5.0256,5.0367,5.0427,5.0512,5.0538,5.0472,5.0724,5.0639,5.0743,5.0742,5.0796,5.0792,5.1084,5.0838,5.0837,5.0837,5.0836,0,4.9576,4.9713,4.976,4.9856,5.0009,5.0028,5.0178,5.0222,5.0294,5.0398,5.0387,5.0484,5.0513,5.0616,5.0636,5.0787,5.0815,5.0834,5.0838,5.0834,5.0832,5.0872,5.0859,5.0845,5.0843,5.0841,5.084,0,4.9779,4.9816,4.9985,5.0073,5.0098,5.0207,5.0282,5.0374,5.0408,5.054,5.0572,5.0625,5.0745,5.0779,5.0924,5.0937,5.1114,5.1106,5.1085,5.1084,5.1185,5.1175,5.1513,5.1558,5.1283,5.1286,5.1288,0,4.9925,5.0029,5.0128,5.0197,5.0248,5.0359,5.043,5.0452,5.0526,5.0632,5.0712,5.083,5.0926,5.1119,5.117,5.128,5.1273,5.1384,5.129,5.1282,5.1272,5.1265,5.1275,5.1401,5.1404,5.1407,5.1409,0,5.0178,5.0191,5.0293,5.0402,5.0486,5.0573,5.0656,5.0713,5.0747,5.0831,5.0953,5.1028,5.1174,5.1292,5.1403,5.1452,5.1436,5.1438,5.1468,5.1464,5.1447,5.1455,5.1131,5.143,5.1428,5.1426,5.1425,5.1424,5.0355,5.0447,5.053,5.0644,5.0709,5.0786,5.0877,5.0922,5.1024,5.1145,5.1152,5.1285,5.1367,5.1515,5.157,5.1673,5.164,5.1683,5.1694,5.1704,5.1711,5.1432,5.1694,5.1693,5.1693,5.1692,5.1692,0,5.0606,5.0659,5.0763,5.0879,5.0969,5.0946,5.1037,5.1113,5.1229,5.1308,5.1402,5.1542,5.1655,5.1715,5.1827,5.1898,5.1894,5.1927,5.1921,5.1932,5.1735,5.1698,5.1929,5.1929,5.1928,5.1928,5.1928,5.1928,5.0747,5.09,5.0922,5.1106,5.1157,5.1287,5.134,5.1411,5.1474,5.163,5.1724,5.1762,5.1833,5.195,5.2053,5.2067,5.2108,5.2145,5.2156,5.1971,5.1946,5.1923,5.1888,5.2155,5.2155,5.2344,5.2345,5.2347]},{"header":{"parameterUnit":"m.s-1","parameterCategory":1,"la1":30.2991,"la2":30.254,"lo1":-89.0895,"lo2":-89.0444,"dy":0.0017,"dx":0.0017,"nx":28,"ny":28,"refTime":"2025-12-30T03:00:00:Z","depth":0,"parameterNumber":3,"parameterNumberName":"V-component_of_WINDS"},"data":[0,0,0,0,0,0,0,0,0,0,0,0,0,0,0,0,0,0,0,0,0,0,0,0,0,0,0,0,0,0,0,0,0,0,0,0,0,0,0,0,0,0,0,0,0,0,0,0,0,0,0,0,0,0,0,0,0,0,1.0327,1.0327,0,1.0304,1.0304,1.0303,1.0267,1.0266,1.0266,1.0265,1.0241,1.0241,1.0241,0,0,0,0,0,0,0,0,0,0,0,0,0,1.0339,1.0339,1.0327,1.0327,1.0327,1.0304,1.0304,1.0303,1.0267,1.0266,1.0266,1.0265,1.0241,1.0241,1.0241,0,0,0,0,0,0,0,0,0,0,0,0,0,1.0326,1.0339,1.0327,1.0306,1.0304,1.0304,1.0304,1.0303,1.0267,1.0266,1.0265,1.0265,1.0241,1.0241,1.0241,1.026,0,0,1.0241,1.0241,0,0,0,0,0,0,0,0,1.0327,1.0326,1.0309,1.0307,1.0305,1.0287,1.0299,1.0289,1.0268,1.0281,1.0265,1.0264,1.0257,1.0256,1.0253,1.0259,1.0258,1.0241,1.0241,1.0241,1.0241,0,0,0,0,0,0,0,1.0328,1.0327,1.0318,1.0309,1.0306,1.0297,1.0294,1.0297,1.0275,1.028,1.0277,1.0275,1.0256,1.0254,1.0253,1.0257,1.0241,1.0241,1.0241,1.0241,1.0275,1.0276,0,0,0,0,0,0,1.0332,1.0328,1.0319,1.0317,1.0314,1.0297,1.0294,1.0294,1.0275,1.0271,1.0276,1.0273,1.0254,1.0253,1.0252,1.0271,1.0241,1.0241,1.0241,1.0274,1.0275,1.0276,0,0,0,0,0,0,1.0333,1.0332,1.032,1.0322,1.0319,1.0298,1.0298,1.0294,1.0292,1.0272,1.0268,1.0278,1.0253,1.0252,1.0258,1.027,1.0241,1.024,1.0273,1.0274,1.0275,1.0312,0,0,0,0,0,0,1.0333,1.0332,1.034,1.0322,1.032,1.0327,1.0299,1.0294,1.0292,1.0288,1.0272,1.0269,1.0252,1.0258,1.0258,1.0269,1.024,1.0271,1.0273,1.0275,1.031,1.0315,1.0319,0,0,0,0,0,1.0334,1.0351,1.034,1.034,1.0329,1.0328,1.0326,1.0307,1.0293,1.03,1.0287,1.0269,1.0269,1.0259,1.0258,1.027,1.0271,1.0273,1.0275,1.0308,1.0314,1.0319,0,0,0,0,0,0,1.0372,1.0349,1.0336,1.0349,1.034,1.0322,1.033,1.0314,1.031,1.0307,1.0283,1.0279,1.0288,1.028,1.0269,1.0286,1.0267,1.0269,1.0292,1.0297,1.0302,1.0304,1.024,0,0,0,0,0,1.0381,1.0383,1.0363,1.0376,1.0372,1.0352,1.0351,1.0336,1.0327,1.0323,1.031,1.0301,1.0298,1.0297,1.0294,1.0308,1.0303,1.0316,1.032,1.0324,1.0326,1.0331,1.0336,1.0283,1.0283,1.0283,0,0,1.0402,1.0389,1.0392,1.0383,1.0375,1.0376,1.0349,1.0352,1.0352,1.0323,1.0328,1.0318,1.0306,1.0315,1.0319,1.0309,1.0339,1.0327,1.033,1.033,1.0334,1.0339,1.0343,1.0284,1.0284,1.0284,0,0,1.0439,1.043,1.044,1.0431,1.0419,1.0405,1.0407,1.039,1.0382,1.0387,1.0364,1.0364,1.0361,1.0352,1.0348,1.038,1.0363,1.0379,1.0403,1.0408,1.0413,1.0416,1.0427,1.0431,1.0382,1.0382,1.0382,0,1.0466,1.0468,1.0446,1.045,1.0446,1.0419,1.0428,1.0421,1.0408,1.0406,1.0394,1.0388,1.0378,1.0384,1.0392,1.039,1.039,1.0382,1.0414,1.0417,1.042,1.043,1.0434,1.0384,1.0383,1.0383,1.0383,0,1.0501,1.0502,1.0511,1.0498,1.0495,1.0502,1.048,1.048,1.0465,1.0452,1.0456,1.0443,1.0435,1.0436,1.0422,1.044,1.0433,1.0418,1.0398,1.0428,1.0436,1.044,1.0387,1.0386,1.0385,1.0385,0,0,1.0563,1.0537,1.0541,1.0534,1.0518,1.0518,1.0522,1.0514,1.0514,1.0505,1.0507,1.0504,1.0489,1.0484,1.0469,1.0473,1.0498,1.0457,1.0456,1.0465,1.0515,1.0526,1.0531,1.0486,1.0487,1.0488,1.0516,0,1.0597,1.0603,1.0583,1.0594,1.0594,1.0567,1.0571,1.056,1.0548,1.0545,1.0531,1.0528,1.051,1.0506,1.0509,1.0494,1.0508,1.0492,1.0487,1.0488,1.0491,1.0536,1.0548,1.0576,1.0519,1.052,1.052,0,1.0638,1.0631,1.0642,1.0623,1.0622,1.0625,1.0616,1.0614,1.0601,1.0591,1.0584,1.0566,1.0568,1.0548,1.0549,1.0539,1.0535,1.0528,1.0528,1.0527,1.0506,1.0535,1.0584,1.0588,1.0525,1.0525,1.0524,0,1.0681,1.0675,1.068,1.0675,1.0653,1.0656,1.0647,1.0632,1.0629,1.062,1.0617,1.0609,1.0605,1.0598,1.0578,1.0565,1.058,1.0559,1.0572,1.0572,1.0577,1.0577,1.0625,1.0575,1.0575,1.0575,1.0575,0,1.0722,1.0729,1.0699,1.0702,1.0709,1.0685,1.0692,1.0681,1.0668,1.0667,1.0643,1.0643,1.0617,1.0613,1.0597,1.0599,1.0598,1.0589,1.0585,1.0591,1.0592,1.0589,1.0586,1.0576,1.0576,1.0575,1.0575,0,1.0772,1.0752,1.0755,1.0734,1.0728,1.0734,1.0715,1.0717,1.0702,1.0701,1.07,1.0677,1.0671,1.065,1.0639,1.0628,1.0636,1.0627,1.064,1.0637,1.0651,1.0649,1.0698,1.0703,1.0651,1.0651,1.0651,0,1.0799,1.0804,1.0782,1.078,1.0772,1.0769,1.0765,1.0741,1.0737,1.0721,1.0724,1.0717,1.0709,1.0702,1.0683,1.0674,1.0665,1.0683,1.0664,1.067,1.0665,1.0665,1.0664,1.0687,1.0688,1.0689,1.0689,0,1.0848,1.0838,1.0833,1.0823,1.0819,1.081,1.0801,1.08,1.0773,1.077,1.0764,1.0758,1.0747,1.0739,1.0727,1.0716,1.0698,1.0695,1.0697,1.0704,1.0711,1.0706,1.0651,1.0694,1.0694,1.0693,1.0693,1.0693,1.0887,1.089,1.0874,1.0869,1.0859,1.085,1.0849,1.0834,1.0829,1.0817,1.0803,1.0799,1.0783,1.0765,1.0755,1.0751,1.074,1.0744,1.0745,1.0746,1.0749,1.0712,1.0748,1.0748,1.0748,1.0748,1.0748,0,1.0935,1.0923,1.0918,1.0905,1.09,1.0883,1.087,1.0867,1.0864,1.0851,1.0844,1.0836,1.0828,1.0808,1.0797,1.0797,1.0788,1.0795,1.0795,1.0793,1.0759,1.0758,1.0803,1.0803,1.0803,1.0803,1.0803,1.0803,1.0959,1.0962,1.0949,1.0946,1.0934,1.093,1.0924,1.0915,1.0904,1.0896,1.0889,1.0876,1.086,1.0848,1.0839,1.0833,1.083,1.084,1.0832,1.08,1.0795,1.079,1.0789,1.084,1.084,1.0865,1.0866,1.0866]}]]